Location: Unspecified
(0.0000°N, 0.0000°E)
Time: 01:56:48
(UTC+00:00)

YUBILEINY - Pass Details

Date: 13 December 2017
Orbit: 1478 x 1509 km, 82.5° (Epoch: 21 January)

Event Time Altitude Azimuth Distance (km) Brightness Sun altitude
Rises 04:41:02 0° 226° (SW) 4,619 ? -16.8°
Reaches altitude 10° 04:46:43 10° 255° (WSW) 3,643 ? -15.5°
Enters shadow 04:47:09 11° 258° (WSW) 3,605 ? -15.4°
